Stations météo

Publicité
Dorans, France (7296): Température de l'air & dewpoint: 20.09.2017 12:00:00 - 26.09.2017 12:00:00 (CEST)Dorans, France (7296): Température de l'air 5cm: 20.09.2017 12:00:00 - 26.09.2017 12:00:00 (CEST)Dorans, France (7296): Température de l'air -20cm & Température de l'air -100cm: 20.09.2017 12:00:00 - 26.09.2017 12:00:00 (CEST)Dorans, France (7296): Vitesse du vent & gusts: 20.09.2017 12:00:00 - 26.09.2017 12:00:00 (CEST)Dorans, France (7296): Direction du vent: 20.09.2017 12:00:00 - 26.09.2017 12:00:00 (CEST)Dorans, France (7296): reduced air pressure: 20.09.2017 12:00:00 - 26.09.2017 12:00:00 (CEST)Dorans, France (7296): visibility: 20.09.2017 12:00:00 - 26.09.2017 12:00:00 (CEST)Dorans, France (7296): Quantités de précipitations: 20.09.2017 12:00:00 - 26.09.2017 12:00:00 (CEST)
Date & Time tt [°C] td [°C] tt 5cm [°C] tt -20cm [°C] tt -100cm [°C] ff [km/h] ff [knt] fx [km/h] fx [knt] dd ppp [hPa] vv [km] rr [mm]
26.09.2017 12:00:00 12,9 11,3 13,5 15,4 15,9 4 2 10 5 SE 1021,8 12 0,0
26.09.2017 11:00:00 12,6 10,7 12,0 15,4 15,9 3 2 6 3 ENE 1022,1 13 0,0
26.09.2017 10:00:00 11,6 10,3 11,3 15,4 15,9 2 1 6 3 ENE 1021,9 11 0,4
26.09.2017 09:00:00 10,9 10,1 10,5 15,4 15,9 2 1 9 5 E 1021,5 12 0,0
26.09.2017 08:00:00 10,4 9,8 9,7 15,5 15,9 2 1 6 3 SSW 1021,4 14 0,0
26.09.2017 07:00:00 10,0 9,4 9,4 15,6 15,9 2 1 6 3 SW 1020,9 11 0,0
26.09.2017 06:00:00 10,0 9,4 9,3 15,7 15,9 2 1 8 5 WNW 1020,7 14 0,0
26.09.2017 05:00:00 9,7 9,1 8,3 15,8 15,9 3 2 6 3 WSW 1020,8 20 0,0
26.09.2017 04:00:00 9,5 8,6 7,0 16,0 15,9 3 2 5 3 WNW 1021,0 18 0,0
26.09.2017 03:00:00 10,0 8,8 7,8 16,1 15,9 3 2 9 5 WSW 1021,0 20 0,0
26.09.2017 02:00:00 10,1 9,5 8,0 16,2 15,9 3 2 5 3 SW 1021,0 4,9 0,0
26.09.2017 01:00:00 11,0 10,4 8,5 16,4 15,9 1 1 10 5 SSE 1020,8 11 0,0
26.09.2017 00:00:00 10,8 9,9 8,8 16,5 15,9 2 1 8 4 S 1020,8 6 0,0
25.09.2017 23:00:00 12,1 11,0 9,7 16,6 15,9 4 2 8 4 SW 1020,6 19 0,0
25.09.2017 22:00:00 12,6 11,0 10,2 16,7 15,9 3 1 9 5 WSW 1020,2 19 0,0
25.09.2017 21:00:00 14,5 11,3 12,1 16,7 15,9 5 3 16 9 WSW 1019,8 20 0,0
25.09.2017 20:00:00 15,5 11,5 13,2 16,7 15,9 11 6 21 11 WSW 1019,3 20 0,0
25.09.2017 19:00:00 16,4 10,9 14,4 16,6 15,9 10 5 18 10 WSW 1018,5 20 0,0
25.09.2017 18:00:00 18,9 10,5 20,6 16,4 15,9 10 6 20 11 WSW 1017,7 20 0,0
25.09.2017 17:00:00 19,7 10,7 22,5 16,1 15,9 12 7 22 12 SW 1017,1 20 0,0
25.09.2017 16:00:00 20,0 11,2 26,5 15,9 15,9 5 3 14 8 NNE 1017,2 20 0,0
25.09.2017 15:00:00 18,8 10,9 26,8 15,6 15,9 5 3 19 10 NE 1017,7 20 0,0
25.09.2017 14:00:00 17,5 12,4 25,0 15,4 15,9 8 5 22 12 ENE 1018,0 19 0,0
25.09.2017 13:00:00 16,0 12,0 22,0 15,3 15,9 11 6 27 14 E 1018,6 17 0,0
25.09.2017 12:00:00 14,1 11,3 15,6 15,2 15,9 12 6 24 13 ENE 1019,0 9 0,0
25.09.2017 11:00:00 11,6 11,3 11,8 15,2 15,9 12 7 23 12 ENE 1019,6 4,4 0,0
25.09.2017 10:00:00 10,5 10,3 10,8 15,3 15,9 11 6 22 12 ENE 1020,0 0,6 0,0
25.09.2017 09:00:00 10,0 9,8 10,1 15,3 15,9 10 5 23 12 E 1020,2 0,2 0,0
25.09.2017 08:00:00 9,9 9,7 9,3 15,4 15,9 10 6 20 11 ENE 1020,1 0,2 0,0
25.09.2017 07:00:00 9,1 9,0 7,2 15,6 15,9 6 4 14 8 E 1020,1 0,1 0,0
25.09.2017 06:00:00 8,6 8,3 5,7 15,7 15,9 5 3 9 5 E 1020,2 0,2 0,0
25.09.2017 05:00:00 8,9 8,4 5,7 15,9 15,9 4 2 6 3 E 1020,3 1,8 0,0
25.09.2017 04:00:00 9,6 8,8 7,1 16,1 15,9 5 3 6 4 NE 1020,5 5 0,0
25.09.2017 03:00:00 9,9 8,8 7,1 16,2 15,9 5 3 7 4 ENE 1020,7 10 0,0
25.09.2017 02:00:00 10,5 8,8 7,7 16,4 15,9 4 2 9 5 ENE 1020,9 16 0,0
25.09.2017 01:00:00 11,6 8,8 8,1 16,5 15,8 5 3 13 7 ENE 1020,9 20 0,0
25.09.2017 00:00:00 12,3 8,8 8,2 16,6 15,8 8 4 14 7 SE 1021,0 20 0,0
24.09.2017 23:00:00 12,9 9,0 8,9 16,8 15,9 8 4 13 7 SSE 1021,2 20 0,0
24.09.2017 22:00:00 13,3 8,8 9,5 17,0 15,9 5 3 10 5 SE 1021,3 20 0,0
24.09.2017 21:00:00 14,8 8,9 11,2 17,0 15,9 4 2 16 9 E 1020,7 20 0,0
24.09.2017 20:00:00 15,5 9,2 11,9 17,0 15,9 5 3 18 10 E 1020,3 20 0,0
24.09.2017 19:00:00 18,9 9,7 17,8 17,0 15,9 4 2 10 5 NNE 1019,5 20 0,0
24.09.2017 18:00:00 21,1 10,6 23,9 16,8 15,9 1 1 12 6 NNE 1019,0 20 0,0
24.09.2017 17:00:00 20,7 10,2 24,5 16,5 15,9 5 3 15 8 SSE 1019,1 20 0,0
24.09.2017 16:00:00 20,6 8,9 26,9 16,2 15,8 4 2 13 7 NNE 1019,4 20 0,0
24.09.2017 15:00:00 20,3 8,9 28,3 15,9 15,9 6 3 16 8 ENE 1019,6 19 0,0
24.09.2017 14:00:00 19,1 10,9 26,6 15,6 15,9 7 4 23 13 ESE 1020,1 20 0,0
24.09.2017 13:00:00 18,3 11,4 24,9 15,4 15,9 9 5 22 12 E 1020,4 19 0,0
24.09.2017 12:00:00 17,1 12,4 20,4 15,3 15,9 6 4 16 8 ESE 1021,0 18 0,0
24.09.2017 11:00:00 15,2 11,4 16,3 15,3 15,9 8 4 16 9 ESE 1021,5 12 0,0
24.09.2017 10:00:00 13,4 10,9 12,6 15,3 15,9 8 4 16 9 ESE 1021,9 8 0,0
24.09.2017 09:00:00 11,8 10,5 8,8 15,4 15,9 3 2 6 3 ENE 1021,9 4,9 0,0
24.09.2017 08:00:00 9,7 9,4 6,9 15,6 15,9 4 2 7 4 E 1022,0 3,6 0,0
24.09.2017 07:00:00 9,9 9,6 7,8 15,7 15,9 2 1 4 2 NNE 1021,7 3,8 0,0
24.09.2017 06:00:00 9,8 9,3 8,0 15,8 15,9 1 1 5 3 E 1021,4 4,5 0,0
24.09.2017 05:00:00 11,2 9,9 9,0 15,9 15,9 2 1 6 4 ENE 1020,9 8 0,0
24.09.2017 04:00:00 11,3 10,0 9,8 16,0 15,9 2 1 6 4 ENE 1021,0 14 0,0
24.09.2017 03:00:00 12,0 10,2 10,4 16,1 15,9 1 1 5 3 E 1020,7 20 0,0
24.09.2017 02:00:00 12,0 10,4 10,6 16,2 15,9 2 1 6 4 WSW 1021,0 20 0,0
24.09.2017 01:00:00 13,3 10,8 12,3 16,3 15,9 3 2 8 4 NNE 1020,8 20 0,0
24.09.2017 00:00:00 14,3 10,3 12,3 16,4 15,9 4 2 11 6 ESE 1020,8 20 0,0
23.09.2017 23:00:00 14,5 10,5 12,6 16,5 15,9 7 4 14 8 SE 1020,9 20 0,0
23.09.2017 22:00:00 14,6 10,4 12,4 16,5 15,9 5 3 11 6 SSE 1020,8 20 0,0
23.09.2017 21:00:00 15,1 10,7 13,0 16,5 15,9 3 2 7 4 ESE 1020,6 20 0,0
23.09.2017 20:00:00 15,7 10,9 13,6 16,5 15,9 5 3 11 6 N 1020,3 20 0,0
23.09.2017 19:00:00 17,7 10,3 16,3 16,4 15,9 4 2 9 5 WNW 1019,9 20 0,0
23.09.2017 18:00:00 19,7 10,9 19,9 16,2 15,9 4 2 10 5 NNW 1019,4 20 0,0
23.09.2017 17:00:00 21,4 9,9 24,5 15,9 15,9 4 2 10 6 WNW 1019,3 20 0,0
23.09.2017 16:00:00 20,9 9,5 22,5 15,6 15,9 5 3 13 7 NW 1019,6 20 0,0
23.09.2017 15:00:00 19,8 10,5 27,2 15,3 15,9 8 5 19 11 ESE 1020,3 20 0,0
23.09.2017 14:00:00 19,0 11,6 26,2 15,0 15,9 10 5 22 12 ENE 1020,7 20 0,0
23.09.2017 13:00:00 18,1 10,7 24,1 14,7 15,9 10 5 24 13 E 1021,3 18 0,0
23.09.2017 12:00:00 17,0 11,3 20,2 14,6 15,9 10 5 18 10 E 1022,0 20 0,0
23.09.2017 11:00:00 15,3 11,1 15,3 14,5 15,9 8 4 13 7 E 1022,6 19 0,0
23.09.2017 10:00:00 13,2 9,8 11,6 14,6 15,9 5 3 12 6 ESE 1023,0 20 0,0
23.09.2017 09:00:00 10,7 10,5 7,4 14,7 15,9 1 1 3 2 E 1023,3 19 0,0
23.09.2017 08:00:00 8,3 8,0 6,0 14,8 15,9 1 0 3 2 N 1023,5 1,7 0,0
23.09.2017 07:00:00 8,3 8,0 6,5 15,0 15,9 2 1 4 2 SW 1023,5 1,4 0,0
23.09.2017 06:00:00 9,1 8,8 7,0 15,1 16,0 0 0 4 2 S 1023,2 17 0,0
23.09.2017 05:00:00 9,1 8,8 7,1 15,2 15,9 2 1 6 3 NW 1023,4 10 0,0
23.09.2017 04:00:00 9,6 9,1 8,0 15,3 16,0 4 2 7 4 NW 1023,6 4,8 0,0
23.09.2017 03:00:00 10,3 9,8 8,0 15,5 15,9 2 1 10 5 W 1023,5 13 0,0
23.09.2017 02:00:00 10,1 9,6 8,4 15,6 15,9 3 2 4 2 S 1023,8 10 0,0
23.09.2017 01:00:00 10,6 10,0 8,5 15,7 16,0 3 2 6 3 NW 1023,5 15 0,0
23.09.2017 00:00:00 10,6 9,8 8,7 15,9 15,9 3 2 5 3 WSW 1023,6 19 0,0
22.09.2017 23:00:00 12,0 10,1 9,5 16,0 15,9 3 1 11 6 NW 1023,2 20 0,0
22.09.2017 22:00:00 12,2 9,8 9,5 16,1 16,0 7 4 10 6 WSW 1022,8 20 0,0
22.09.2017 21:00:00 15,0 9,6 12,2 16,2 16,0 7 4 11 6 W 1022,0 20 0,0
22.09.2017 20:00:00 16,0 10,1 13,7 16,1 16,0 6 4 11 6 W 1021,3 20 0,0
22.09.2017 19:00:00 18,2 9,8 17,1 16,0 16,0 6 3 18 10 WNW 1020,6 20 0,0
22.09.2017 18:00:00 19,4 10,4 21,0 15,7 16,0 11 6 21 12 NW 1020,2 20 0,0
22.09.2017 17:00:00 19,3 10,6 20,6 15,5 16,0 9 5 22 12 WNW 1020,2 20 0,0
22.09.2017 16:00:00 20,1 10,5 22,2 15,1 16,0 9 5 20 11 W 1020,0 20 0,0
22.09.2017 15:00:00 19,8 9,9 23,6 14,8 16,0 10 6 22 12 WNW 1020,3 20 0,0
22.09.2017 14:00:00 19,0 8,9 23,4 14,4 16,0 11 6 27 14 W 1020,5 20 0,0
22.09.2017 13:00:00 18,1 9,2 23,0 14,1 16,0 12 7 22 12 W 1020,7 20 0,0
22.09.2017 12:00:00 17,2 10,8 18,8 13,9 16,0 7 4 18 10 W 1020,8 20 0,0
22.09.2017 11:00:00 14,7 9,9 14,9 13,9 16,0 8 5 12 7 WSW 1021,3 20 0,0
22.09.2017 10:00:00 13,4 9,8 10,1 13,9 16,0 3 2 13 7 SE 1021,3 20 0,0
22.09.2017 09:00:00 9,7 8,6 6,1 14,0 16,0 4 2 8 5 SW 1021,7 20 0,0
22.09.2017 08:00:00 7,4 7,1 4,4 14,2 16,0 4 2 6 3 WSW 1021,9 18 0,0
22.09.2017 07:00:00 6,8 6,5 4,1 14,4 16,1 4 2 6 4 W 1021,6 8 0,0
22.09.2017 06:00:00 7,3 6,9 4,6 14,4 16,1 3 2 6 4 WSW 1021,1 6 0,2
22.09.2017 05:00:00 7,1 6,8 4,8 14,6 16,0 1 1 4 2 N 1021,3 5 0,0
22.09.2017 04:00:00 7,4 7,0 5,5 14,7 16,0 2 1 3 2 W 1021,1 6 0,0
22.09.2017 03:00:00 8,1 7,3 5,9 14,9 16,1 1 1 3 2 NNE 1021,1 12 0,0
22.09.2017 02:00:00 8,4 7,6 5,7 15,0 16,1 2 1 4 2 ENE 1021,3 16 0,0
22.09.2017 01:00:00 8,7 7,6 7,1 15,1 16,1 2 1 4 2 E 1020,9 20 0,0
22.09.2017 00:00:00 9,9 7,8 7,6 15,3 16,0 2 1 6 4 ESE 1020,7 20 0,0
21.09.2017 23:00:00 10,3 8,1 8,1 15,4 16,1 3 2 8 5 SSE 1020,5 8 0,0
21.09.2017 22:00:00 12,3 8,2 8,9 15,5 16,1 6 3 8 5 NE 1020,0 20 0,0
21.09.2017 21:00:00 13,3 7,7 9,4 15,5 16,1 6 3 11 6 ENE 1019,7 20 0,0
21.09.2017 20:00:00 14,6 6,9 11,5 15,5 16,1 7 4 11 6 NE 1019,1 20 0,0
21.09.2017 19:00:00 16,4 7,6 15,1 15,4 16,1 8 5 22 12 ENE 1018,4 20 0,0
21.09.2017 18:00:00 17,9 7,0 19,7 15,3 16,1 13 7 27 15 ENE 1017,9 20 0,0
21.09.2017 17:00:00 18,5 7,6 22,3 15,1 16,1 12 6 29 16 E 1018,0 20 0,0
21.09.2017 16:00:00 18,3 7,1 23,3 14,8 16,1 17 9 35 19 ENE 1018,4 20 0,0
21.09.2017 15:00:00 17,6 7,3 22,7 14,6 16,1 18 10 31 17 ENE 1018,7 20 0,0
21.09.2017 14:00:00 17,1 6,6 22,3 14,3 16,1 18 10 37 20 E 1019,1 20 0,0
21.09.2017 13:00:00 15,7 7,5 20,4 14,1 16,1 16 8 34 18 ENE 1019,8 20 0,0
21.09.2017 12:00:00 14,1 8,5 15,9 14,0 16,1 17 9 35 19 E 1020,6 20 0,0
21.09.2017 11:00:00 12,7 8,4 12,3 14,0 16,1 16 9 32 18 E 1021,4 20 0,0
21.09.2017 10:00:00 11,2 9,1 9,7 14,0 16,1 16 8 26 14 ENE 1021,5 14 0,0
21.09.2017 09:00:00 8,5 8,4 5,9 14,1 16,1 10 5 17 9 ENE 1021,9 7 0,0
21.09.2017 08:00:00 6,0 5,9 5,8 14,2 16,1 6 4 18 10 E 1022,2 0,4 0,0
21.09.2017 07:00:00 6,5 6,4 6,3 14,3 16,1 9 5 17 9 E 1022,4 0,1 0,0
21.09.2017 06:00:00 6,2 6,1 3,7 14,5 16,1 6 3 10 5 ESE 1022,5 0,2 0,0
21.09.2017 05:00:00 6,1 5,8 3,7 14,6 16,1 6 3 14 7 E 1022,8 3,5 0,0
21.09.2017 04:00:00 6,4 6,3 3,4 14,8 16,2 6 3 11 6 E 1022,8 0,7 0,0
21.09.2017 03:00:00 6,7 6,3 3,9 15,0 16,1 4 2 8 5 E 1023,0 0,5 0,0
21.09.2017 02:00:00 7,4 7,0 3,9 15,2 16,2 4 2 6 3 ENE 1023,2 1,0 0,0
21.09.2017 01:00:00 8,0 7,6 5,7 15,3 16,2 4 2 6 4 ENE 1023,2 5 0,0
21.09.2017 00:00:00 8,2 7,6 5,1 15,4 16,1 4 2 7 4 E 1023,2 4,3 0,0
20.09.2017 23:00:00 8,9 7,8 5,1 15,6 16,2 4 2 7 4 ESE 1023,2 9 0,0
20.09.2017 22:00:00 9,2 8,0 6,9 15,7 16,2 4 2 8 4 E 1023,1 20 0,0
20.09.2017 21:00:00 9,7 8,5 7,5 15,8 16,2 4 2 9 5 N 1023,0 20 0,0
20.09.2017 20:00:00 11,8 8,1 9,7 15,8 16,2 7 4 10 5 W 1022,4 20 0,0
20.09.2017 19:00:00 14,1 8,5 13,9 15,7 16,2 5 3 12 7 W 1021,8 20 0,0
20.09.2017 18:00:00 15,3 7,8 16,6 15,6 16,2 7 4 18 10 WNW 1021,5 20 0,0
20.09.2017 17:00:00 15,7 8,9 19,8 15,4 16,2 10 6 26 14 NNW 1021,6 20 0,0
20.09.2017 16:00:00 15,3 9,2 15,1 15,2 16,2 10 5 22 12 WNW 1022,2 20 0,0
20.09.2017 15:00:00 13,5 9,2 14,8 15,0 16,2 10 5 23 13 WNW 1022,7 20 0,0
20.09.2017 14:00:00 13,4 9,4 15,4 14,7 16,2 13 7 23 13 WNW 1023,0 20 0,0
20.09.2017 13:00:00 13,8 9,0 16,7 14,5 16,2 10 5 21 11 WNW 1023,2 20 0,0
20.09.2017 12:00:00 13,3 10,8 13,8 14,4 16,2 6 3 22 12 W 1023,5 20 0,0

tt = Température de l'air
td = dewpoint
tt 5cm = Température de l'air 5cm
tt -20cm = Température de l'air -20cm
tt -100cm = Température de l'air -100cm
ff = Vitesse du vent
fx = gusts
dd = Direction du vent
ppp = reduced air pressure
vv = visibility
rr = Quantités de précipitations

stations d'obs. à proximité